TimeEST,TemperatureF,Dew PointF,Humidity,Sea Level PressureIn,VisibilityMPH,Wind Direction,Wind SpeedMPH,Gust SpeedMPH,PrecipitationIn,Events,Conditions,WindDirDegrees,DateUTC
12:54 AM,28.0,24.1,85,30.27,10.0,Calm,Calm,-,N/A,,Clear,0,2012-12-15 05:54:00
1:54 AM,25.0,23.0,92,30.27,10.0,North,4.6,-,N/A,,Clear,10,2012-12-15 06:54:00
2:54 AM,25.0,23.0,92,30.26,10.0,NNE,4.6,-,N/A,,Clear,20,2012-12-15 07:54:00
3:54 AM,25.0,23.0,92,30.26,10.0,Calm,Calm,-,N/A,,Clear,0,2012-12-15 08:54:00
4:54 AM,24.1,21.9,91,30.26,10.0,North,3.5,-,N/A,,Clear,10,2012-12-15 09:54:00
5:54 AM,25.0,23.0,92,30.27,10.0,NNE,3.5,-,N/A,,Clear,30,2012-12-15 10:54:00
6:54 AM,23.0,21.9,96,30.28,10.0,North,4.6,-,N/A,,Clear,360,2012-12-15 11:54:00
7:54 AM,21.9,19.9,92,30.29,9.0,North,4.6,-,N/A,,Clear,360,2012-12-15 12:54:00
8:54 AM,25.0,23.0,92,30.30,10.0,NNE,3.5,-,N/A,,Clear,20,2012-12-15 13:54:00
9:54 AM,28.9,26.1,89,30.28,10.0,NNE,4.6,-,N/A,,Clear,30,2012-12-15 14:54:00
10:54 AM,33.1,28.0,82,30.26,10.0,NE,6.9,-,N/A,,Clear,40,2012-12-15 15:54:00
11:54 AM,36.0,28.0,73,30.22,10.0,NNE,5.8,-,N/A,,Clear,20,2012-12-15 16:54:00
12:54 PM,39.9,28.0,63,30.19,10.0,NE,5.8,-,N/A,,Clear,50,2012-12-15 17:54:00
1:54 PM,44.1,25.0,47,30.16,10.0,ESE,6.9,-,N/A,,Clear,110,2012-12-15 18:54:00
2:54 PM,43.0,25.0,49,30.15,10.0,SSE,4.6,-,N/A,,Clear,150,2012-12-15 19:54:00
3:54 PM,42.1,25.0,51,30.14,10.0,ESE,4.6,-,N/A,,Clear,120,2012-12-15 20:54:00
4:54 PM,39.9,26.1,58,30.12,10.0,East,6.9,-,N/A,,Scattered Clouds,90,2012-12-15 21:54:00
5:54 PM,39.0,27.0,62,30.12,10.0,ENE,5.8,-,N/A,,Overcast,60,2012-12-15 22:54:00
6:54 PM,39.0,27.0,62,30.10,10.0,NE,6.9,-,N/A,,Overcast,50,2012-12-15 23:54:00
7:54 PM,39.0,28.0,65,30.12,10.0,ENE,5.8,-,N/A,,Overcast,60,2012-12-16 00:54:00
8:54 PM,37.9,28.0,68,30.10,10.0,East,6.9,-,N/A,,Overcast,90,2012-12-16 01:54:00
9:54 PM,39.9,28.0,63,30.08,10.0,ESE,4.6,-,N/A,,Overcast,110,2012-12-16 02:54:00
10:54 PM,37.9,30.0,73,30.07,10.0,ENE,4.6,-,0.00,,Overcast,70,2012-12-16 03:54:00
11:54 PM,39.0,30.9,73,30.04,10.0,Variable,3.5,-,0.00,,Overcast,0,2012-12-16 04:54:00